Regional Weather Roundup
Issued by NWS

Home | Current Version | Previous Version | Graphics & Text | Print | Product List | Glossary On
Versions: 1 2 3 4 5 6 7 8 9 10 11 12 13 14 15 16 17 18 19 20 21 22 23 24 25 26 27 28 29 30 31 32 33 34 35 36 37 38 39 40 41 42 43 44 45 46 47 48 49 50
000
ASUS45 KABQ 211110
RWRNM
WEATHER ROUNDUP FOR NEW MEXICO
NATIONAL WEATHER SERVICE ALBUQUERQUE NM
500 AM MDT THU AUG 21 2014

NOTE: "FAIR" MEANS FEW OR NO CLOUDS BELOW 12,000 FEET AGL WITH NO
       SIGNIFICANT WEATHER OR OBSTRUCTIONS TO VISION.

      THIS PRODUCT IS RELEASED AS TWO VERSIONS.  ONE VERSION NEAR
      THE TOP OF THE HOUR CONTAINING PRELIMINARY DATA FROM ALBUQUERQUE
      AND OTHER STATIONS.  A FINAL VERSION WITH ADDITIONAL DATA IS
      ISSUED ABOUT 10 MINUTES AFTER THE HOUR.

NMZ501-503-504-510>518-211200-
NORTHWEST PLATEAU/NORTHCENTRAL MOUNTAINS

CITY           SKY/WX    TMP DP  RH WIND       PRES   REMARKS
FARMINGTON     CLEAR     55  39  54 NE5       30.13S
LOS ALAMOS     CLEAR     62  37  39 CALM      30.23S
SANTA FE       CLEAR     58  39  49 N10       30.15S
TAOS           CLEAR     46  34  61 N3        30.24R
ANGEL FIRE     FAIR      38  35  87 CALM      30.31S

$$
NMZ402-403-502-505>509-211200-
WESTCENTRAL MOUNTAINS/SOUTHWEST MOUNTAINS

CITY           SKY/WX    TMP DP  RH WIND       PRES   REMARKS
GALLUP         MOCLDY    49  36  61 CALM      30.23R
SILVER CITY    CLEAR     63  50  63 NW12      30.15R

$$
NMZ407-409-411-412-211200-
SOUTHERN DESERTS

CITY           SKY/WX    TMP DP  RH WIND       PRES   REMARKS
LORDSBURG      FAIR      63  54  72 W5        30.08R
DEMING         CLEAR     64  52  64 SW7       30.07R
LAS CRUCES     CLEAR     66  49  55 SW5       30.07R
HOLLOMAN AFB   PTCLDY    70  50  49 SE8       30.02R
ALAMOGORDO     PTCLDY    66  48  52 S9        30.04R
T OR C         CLEAR     65  48  54 NE3       30.07R

$$
NMZ519>523-211200-
CENTRAL VALLEYS/CENTRAL HIGHLANDS

CITY           SKY/WX    TMP DP  RH WIND       PRES   REMARKS
ALBUQUERQUE    CLEAR     63  45  51 SE3       30.12R
DOUBLE EAGLE   CLOUDY    61  40  46 NW3       30.15S
MORIARTY ARPT  FAIR      48  44  84 E5        30.16S
CLINES CORNERS CLEAR     54  42  64 W10       30.19R
BELEN          PTSUNNY   59  47  63 CALM      30.11R
SOCORRO        MOCLDY    69  44  40 CALM      30.08R

$$
NMZ524>526-539-540-211200-
SOUTHCENTRAL MOUNTAINS

CITY           SKY/WX    TMP DP  RH WIND       PRES   REMARKS
RUIDOSO        CLEAR     59  45  58 W7        30.23R

$$
NMZ527>531-211200-
NORTHEAST HIGHLANDS/NORTHEAST PLAINS

CITY           SKY/WX    TMP DP  RH WIND       PRES   REMARKS
LAS VEGAS      CLEAR     59  40  49 NW6       30.16S
RATON          CLEAR     52  47  83 N7        30.11R
CLAYTON        CLEAR     66  54  65 SW8       30.01R

$$
NMZ532>537-211200-
EASTCENTRAL PLAINS

CITY           SKY/WX    TMP DP  RH WIND       PRES   REMARKS
TUCUMCARI      CLEAR     73  58  59 SW13      29.97R
CANNON AFB     CLEAR     66  63  91 S3        30.03R
CLOVIS AIRPORT   N/A     64  59  82 SW5       30.06R

$$
NMZ028-029-538-211200-
SOUTHEAST PLAINS

CITY           SKY/WX    TMP DP  RH WIND       PRES   REMARKS
ROSWELL        CLEAR     67  61  81 SE6       29.97R
ARTESIA        CLEAR     68  59  73 CALM      29.98R
CARLSBAD       PTCLDY    73  59  61 SE3       29.95R


$$



USA.gov is the U.S. government's official web portal to all federal, state and local government web resources and services.